This demonstration page uses our WeatherBlox Daily Observations layout. Learn more.

39.92423, -83.80882

Hourly Observations for September 1, 2019

Temp ( °F °C ) Dew Point ( °F °C ) Humidity (%) Winds ( mph kmh ) Pressure ( in mb ) Visibility ( mi km ) Precip ( " mm )
12:56 am 00:56 Clear 62 16.7 60 15.6 93 93 E 7 11 30.18 1022 10 16.09344 0 0
1:56 am 01:56 Clear 62 16.7 59 15 90 90 E 7 11 30.18 1022 10 16.09344 0 0
2:56 am 02:56 Clear 61 16.1 58 14.4 90 90 E 7 11 30.15 1021 10 16.09344 0 0
3:56 am 03:56 Mostly Clear 61 16.1 57 13.9 87 87 E 7 11 30.15 1021 10 16.09344 0 0
4:56 am 04:56 Clear 60 15.6 57 13.9 90 90 E 6 9 30.15 1021 10 16.09344 0 0
5:56 am 05:56 Clear 59 15 57 13.9 93 93 ENE 6 9 30.12 1020 10 16.09344 0 0
6:56 am 06:56 Partly Cloudy 58 14.4 57 13.9 97 97 E 6 9 30.15 1021 10 16.09344 0 0
7:56 am 07:56 Sunny 61 16.1 59 15 93 93 ESE 3 6 30.15 1021 10 16.09344 0 0
8:56 am 08:56 Sunny 65 18.3 60 15.6 84 84 ENE 9 15 30.15 1021 10 16.09344 0 0
9:56 am 09:56 Mostly Cloudy 68 20 61 16.1 78 78 E 9 15 30.15 1021 10 16.09344 0 0
10:56 am 10:56 Partly Cloudy 72 22.2 65 18.3 79 79 SE 9 15 30.15 1021 10 16.09344 0 0
11:56 am 11:56 Partly Cloudy 74 23.3 66 18.9 76 76 S 6 9 30.15 1021 10 16.09344 0 0
12:56 pm 12:56 Partly Cloudy 75 23.9 68 20 79 79 Calm 30.12 1020 10 16.09344 0.001 0.001
1:56 pm 13:56 Partly Cloudy 77 25 69 20.6 77 77 Calm 30.12 1020 10 16.09344 0 0
2:07 pm 14:07 Mostly Cloudy 79 26 70 21 74 74 S 6 9 30.09 1019 10 16.09344 0 0
2:31 pm 14:31 Partly Cloudy 81 27 70 21 70 70 VRB 3 6 30.06 1018 10 16.09344 0 0
2:56 pm 14:56 Mostly Sunny 81 27.2 71 21.7 72 72 SSW 6 9 30.09 1019 10 16.09344 0 0
3:14 pm 15:14 Mostly Cloudy 81 27 70 21 70 70 SW 6 9 30.03 1017 10 16.09344 0 0
3:21 pm 15:21 Mostly Cloudy 81 27 70 21 70 70 VRB 6 9 30.03 1017 10 16.09344 0 0
3:56 pm 15:56 Mostly Cloudy 80 26.7 70 21.1 71 71 SW 7 11 30.06 1018 10 16.09344 0 0
4:56 pm 16:56 Cloudy with Light Rain 75 23.9 72 22.2 90 90 Calm 30.06 1018 10 16.09344 0 0
5:56 pm 17:56 Mostly Cloudy 77 25 72 22.2 85 85 N 7 11 30.06 1018 10 16.09344 0.001 0.001
6:56 pm 18:56 Mostly Cloudy 74 23.3 72 22.2 94 94 NE 5 7 30.06 1018 10 16.09344 0 0
7:56 pm 19:56 Mostly Sunny 73 22.8 72 22.2 96 96 E 3 6 30.06 1018 10 16.09344 0 0
8:56 pm 20:56 Partly Cloudy 69 20.6 69 20.6 100 100 NE 3 6 30.06 1018 10 16.09344 0 0
9:56 pm 21:56 Mostly Clear 69 20.6 69 20.6 100 100 Calm 30.06 1018 10 16.09344 0 0
10:56 pm 22:56 Cloudy 66 18.9 66 18.9 100 100 Calm 30.06 1018 7 11.265408 0 0
11:56 pm 23:56 Cloudy 67 19.4 67 19.4 100 100 S 5 7 30.06 1018 10 16.09344 0 0

Powered by AerisWeather